Starlink 32799

operational
NORAD ID: 62847 Int'l Des: 2025-019 Owner: SPXS Country: US Constellation: starlink
LEOCIRCULAR

关于 Starlink 32799

正在加载描述...

实时位置

正在加载3D地球...

即将过境

高度历史

Altitude vs Time

uPlot chart will show altitude changes over time

两行轨道根数

1 62847U 25019U 25257.34741741 .00027599 00000-0 10088-2 0 9997
2 62847 43.0018 4.6956 0001167 272.9673 87.1045 15.27575640 35281
Epoch: Sep 14, 2025 • Age: 28 hours

当前状态

高度 487.0 km
速度 7.62 km/s
星下点 -19.80°S, 27.15°E
发射日期 Jan 27, 2025
运行时间 0.6 years
类型 internet

技术详情

分类 Payload
质量 730.00 kg
干质量 700.00 kg
总质量 730.00 kg
长度 0.30 m
直径 4.10 m
跨度 29.00 m
形状 Box + pan
制造商 SPXS
平台类型 Starlink V2M
阶段状态 In Orbit
所有者/国家 SPXS/US

大型星座

Loading constellations...